パンスターズ-レモン彗星

P/2020 A4 ( PanSTARRS-Lemmon )

English version
Home page
Updated on August 13, 2022

---------------------------------------------------------------------

・ プロフィール

発見日 2020年1月1日、2月3日
発見光度 21.4等、19.6等
発見者 Sam Deen (Simi Valley, CA, USA), Pan-STARRS 1 telescope (Haleakala), Mt. Lemmon Survey

・ 軌道要素

Epoch 2022 Aug. 9.0 TT = JDT 2459800.5                                          
T 2019 Nov. 22.60802 TT                                 Rudenko                 
q   2.8376174            (2000.0)            P               Q                  
n   0.04201974     Peri.  144.76602     -0.16479936     -0.93570618             
a   8.1940847      Node   312.41015     +0.77992460     +0.06996715             
e   0.6536993      Incl.   24.99036     +0.60378704     -0.34577238             
P  23.5                                                                         
From 106 observations 2019 Oct. 14-2021 Jan. 15, mean residual 0".4.            

・ 光度変化

        m1 = 15.0 + 5 logΔ + 10.0 log r

---------------------------------------------------------------------

軌道要素はM.P.E.C. 2022-P91に掲載されたものです。
光度グラフはComet for Windowsで作成したものです。

---------------------------------------------------------------------

Copyright(C) Seiichi Yoshida (comet@aerith.net). All rights reserved.